User: anonymous   Login
Location: Plymouth
(43.7570°N, 71.6890°W)
Time: 03:21:16
(UTC-05:00)
Language:

Cosmos 2016 Rocket - Orbit

View from above orbital plane
View from above orbital plane
View from above satellite
View from above satellite

Ground track
Ground track

The orbit data is extracted from the following two-line orbital elements,

1 19922U 89028B   15026.55021853  .00000089  00000-0  73496-4 0  1502
2 19922 082.9612 354.0847 0036989 167.9046 329.5179 13.77135734297120
Epoch (UTC): 26 January 2015 13:12:18
Eccentricity: 0.0036989
inclination: 82.9612°
perigee height: 947 km
apogee height: 1001 km
right ascension of ascending node: 354.0847°
argument of perigee: 167.9046°
revolutions per day: 13.77135734
mean anomaly at epoch: 329.5179°
orbit number at epoch: 29712

The dashed part of the orbit path shows where the satellite is in the earth's shadow,  

DLR